This is the latest recevied weather packets stored in our database for station/object KC0AFB. If no packets are shown the sender has not sent any weather packets the latest 10 day(s).
| Time | Temp. | Humidity | Pressure | Rain* | Wind** | Luminosity | Snow |
|---|---|---|---|---|---|---|---|
| 1778152515 | -1.67° C | 72% | 1011.5 hPa | 0 mm | - | 0 W/m² | - |
| 1778152212 | -1.11° C | 72% | 1011.5 hPa | 0 mm | - | 0 W/m² | - |
| 1778151908 | -1.67° C | 72% | 1011.6 hPa | 0 mm | - | 0 W/m² | - |
| 1778151605 | -1.67° C | 73% | 1011.5 hPa | 0 mm | - | 0 W/m² | - |
| 1778151301 | -1.67° C | 73% | 1011.7 hPa | 0 mm | - | 0 W/m² | - |
| 1778150998 | -1.67° C | 73% | 1011.5 hPa | 0 mm | - | 0 W/m² | - |
| 1778150695 | -1.67° C | 73% | 1011.6 hPa | 0 mm | - | 0 W/m² | - |
| 1778150391 | -2.22° C | 73% | 1011.7 hPa | 0 mm | - | 0 W/m² | - |
| 1778150088 | -2.22° C | 74% | 1011.7 hPa | 0 mm | - | 0 W/m² | - |
| 1778149784 | -2.78° C | 74% | 1011.7 hPa | 0 mm | - | 0 W/m² | - |
| 1778149481 | -2.22° C | 73% | 1011.8 hPa | 0 mm | - | 0 W/m² | - |
| 1778149177 | -2.22° C | 73% | 1011.8 hPa | 0 mm | - | 0 W/m² | - |
| 1778148872 | -2.22° C | 72% | 1011.7 hPa | 0 mm | - | 0 W/m² | - |
| 1778148569 | -1.67° C | 72% | 1011.7 hPa | 0 mm | - | 0 W/m² | - |
| 1778148267 | -1.67° C | 71% | 1011.9 hPa | 0 mm | - | 0 W/m² | - |
| 1778147965 | -1.67° C | 71% | 1012 hPa | 0 mm | - | 0 W/m² | - |
| 1778147662 | -1.67° C | 70% | 1011.9 hPa | 0 mm | - | 0 W/m² | - |
| 1778147359 | -1.11° C | 69% | 1011.8 hPa | 0 mm | - | 0 W/m² | - |
| 1778147055 | -1.11° C | 69% | 1011.8 hPa | 0 mm | - | 0 W/m² | - |
| 1778146752 | -1.11° C | 69% | 1011.8 hPa | 0 mm | - | 0 W/m² | - |
| 1778146450 | -1.11° C | 69% | 1011.8 hPa | 0 mm | - | 0 W/m² | - |
| 1778146148 | -1.11° C | 69% | 1011.9 hPa | 0 mm | - | 0 W/m² | - |
| 1778145844 | -1.11° C | 69% | 1011.7 hPa | 0 mm | - | 0 W/m² | - |
| 1778145541 | -1.11° C | 69% | 1012 hPa | 0 mm | - | 0 W/m² | - |
| 1778145237 | -1.11° C | 69% | 1011.9 hPa | 0 mm | - | 0 W/m² | - |
* Rain latest hour (hover to see other rain measurements)
** Current wind speed in m/s (hover to see current wind gust speed)